Location: Newark
(37.8333°N, 119.5000°W)
Time: 07:21:38
(UTC+00:00)

Tiros 1 despin weight - Pass Details

Date: 20 August 2019
Orbit: 594 x 642 km, 48.2° (Epoch: 20 September)

Event Time Altitude Azimuth Distance (km) Brightness Sun altitude
Rises 12:54:47 0° 305° (NW) 2,887 ? -5.1°
Reaches altitude 10° 12:57:13 10° 314° (NW) 1,989 ? -4.7°
Maximum altitude 13:01:29 37° 22° (NNE) 972 ? -3.9°
Drops below altitude 10° 13:05:48 10° 91° (E) 2,011 ? -3.1°
Sets 13:08:16 0° 99° (E) 2,923 ? -2.6°
